This demonstration page uses our WeatherBlox Daily Observations layout. Learn more.

Left ArrowRight Arrow

Hourly Observations for September 1, 2022

Temp ( °F °C ) Dew Point ( °F °C ) Humidity (%) Winds ( mph kmh ) Pressure ( in mb ) Visibility ( mi km ) Precip ( " mm )
12:53 am 00:53 Clear 79 26.1 62 16.7 56 56 NE 15 24 30.00 1016 10 16 0.00 0.00
1:53 am 01:53 Mostly Clear 78 25.6 65 18.3 64 64 NNW 8 13 29.99 1016 10 16 0.00 0.00
2:53 am 02:53 Clear 78 25.6 62 16.7 58 58 NE 8 13 29.98 1015 10 16 0.00 0.00
3:53 am 03:53 Clear 75 23.9 61 16.1 62 62 N 7 11 29.97 1015 10 16 0.00 0.00
4:53 am 04:53 Clear 76 24.4 62 16.7 62 62 N 8 13 29.97 1015 10 16 0.00 0.00
5:53 am 05:53 Clear 77 25 61 16.1 58 58 E 9 15 29.98 1015 10 16 0.00 0.00
6:53 am 06:53 Sunny 75 23.9 62 16.7 64 64 ENE 7 11 29.98 1015 10 16 0.00 0.00
7:53 am 07:53 Sunny 80 26.7 64 17.8 58 58 Calm 29.98 1015 10 16 0.00 0.00
8:53 am 08:53 Sunny 83 28.3 65 18.3 55 55 W 6 9 29.98 1015 10 16 0.00 0.00
9:53 am 09:53 Partly Cloudy 84 28.9 66 18.9 55 55 WSW 8 13 29.99 1016 10 16 0.00 0.00
10:53 am 10:53 Partly Cloudy 84 28.9 68 20 59 59 VRB 5 7 29.99 1016 10 16 0.00 0.00
11:53 am 11:53 Mostly Cloudy 84 28.9 68 20 59 59 WSW 9 15 29.97 1015 10 16 0.00 0.00
12:53 pm 12:53 Mostly Cloudy 84 28.9 68 20 59 59 SSW 10 17 29.96 1014 10 16 0.00 0.00
1:53 pm 13:53 Mostly Cloudy 82 27.8 69 20.6 65 65 S 9 15 29.94 1014 10 16 0.00 0.00
2:53 pm 14:53 Cloudy 83 28.3 68 20 61 61 S 7 11 29.93 1014 10 16 0.00 0.00
3:53 pm 15:53 Cloudy 82 27.8 66 18.9 58 58 S 8 13 29.92 1013 10 16 0.00 0.00
4:53 pm 16:53 Cloudy 82 27.8 67 19.4 60 60 SSW 5 7 29.92 1013 10 16 0.00 0.00
5:53 pm 17:53 Mostly Cloudy 82 27.8 68 20 63 63 WSW 7 11 29.92 1013 10 16 0.00 0.00
6:53 pm 18:53 Mostly Cloudy 80 26.7 70 21.1 71 71 W 6 9 29.93 1014 10 16 0.00 0.00
7:53 pm 19:53 Cloudy 80 26.7 71 21.7 74 74 W 9 15 29.95 1014 10 16 0.00 0.00
8:53 pm 20:53 Mostly Clear 79 26.1 64 17.8 60 60 NNE 14 22 29.96 1014 10 16 0.00 0.00
9:53 pm 21:53 Partly Cloudy 79 26.1 64 17.8 60 60 NNE 15 24 29.97 1015 10 16 0.00 0.00
10:53 pm 22:53 Mostly Clear 79 26.1 65 18.3 62 62 NNW 14 22 29.96 1015 10 16 0.00 0.00
11:39 pm 23:39 Cloudy 78 25.6 63 17.2 60 60 ENE 14 22 29.96 1014 10 16 0.00 0.00
11:53 pm 23:53 Mostly Cloudy 77 25 63 17.2 62 62 ENE 10 17 29.95 1014 10 16 0.00 0.00

Powered by AerisWeather